Hourly Data Report for July 01, 2021

TORONTO CITY
ONTARIO
Current Station Operator: ECCC - MSC

43°40'00.000" N
79°24'00.000" W
112.50 m
6158355
71508
XTO

Download Data

Hourly Data (July 2021)
Hourly Data Report for July 1, 2021
TIME
LST
Temp Definition
°C
Dew Point Definition
°C
Rel Hum Definition
%
Precip. Amount Definition
mm

Wind Dir Definition
10's deg

Wind Spd Definition
km/h
Visibility Definition
km
Stn Press Definition
kPa
Hmdx Definition


Wind Chill Definition


Weather Definition


00:00 20.8 17.0 79 0.0       100.01 26   LegendNANA
01:00 20.2 17.1 83 0.0       99.97 26   LegendNANA
02:00 19.8 16.9 84 0.0       99.93     LegendNANA
03:00 20.3 16.8 80 0.0       99.91 25   LegendNANA
04:00 19.8 16.7 82 0.0       99.87     LegendNANA
05:00 20.0 16.3 79 0.0       99.92 25   LegendNANA
06:00 19.8 16.0 79 0.0       99.91     LegendNANA
07:00 20.2 16.4 79 0.0       99.90 25   LegendNANA
08:00 21.3 16.8 75 0.0       99.88 26   LegendNANA
09:00 22.6 17.0 71 0.0       99.88 28   LegendNANA
10:00 21.6 16.3 72 0.0       99.87 26   LegendNANA
11:00 22.8 16.3 67 0.0       99.87 28   LegendNANA
12:00 25.3 16.6 58 0.0       99.83 30   LegendNANA
13:00 24.8 16.7 61 0.0       99.78 30   LegendNANA
14:00 23.2 16.8 67 0.0       99.76 28   LegendNANA
15:00 22.2 16.4 69 0.0       99.73 27   LegendNANA
16:00 22.7 16.4 68 0.0       99.68 28   LegendNANA
17:00 22.9 16.2 66 0.0       99.70 28   LegendNANA
18:00 23.3 15.1 60 0.0       99.71 27   LegendNANA
19:00 22.2 14.3 61 0.0       99.78 26   LegendNANA
20:00 20.2 13.4 65 0.0       99.79     LegendNANA
21:00 19.2 13.3 69 0.0       99.82     LegendNANA
22:00 18.8 13.8 73 0.0       99.83     LegendNANA
23:00 18.3 13.6 74 0.0       99.78     LegendNANA

Notes on Data Quality.

Legend

  • E = Estimated
  • M = Missing
  • NA = Not Available*
  • [empty] = Indicates an unobserved value
Date modified: